TimeMST,TemperatureF,Dew PointF,Humidity,Sea Level PressureIn,VisibilityMPH,Wind Direction,Wind SpeedMPH,Gust SpeedMPH,PrecipitationIn,Events,Conditions,WindDirDegrees,DateUTC
12:17 AM,-7.6,-13.0,77,29.78,-9999.0,North,-9999.0,-,N/A,,Clear,0,2013-01-30 07:17:00
12:37 AM,-7.6,-13.0,77,29.77,-9999.0,North,-9999.0,-,N/A,,Clear,0,2013-01-30 07:37:00
12:57 AM,-7.6,-13.0,77,29.78,-9999.0,North,-9999.0,-,N/A,,Clear,0,2013-01-30 07:57:00
1:17 AM,-7.6,-13.0,77,29.78,-9999.0,North,-9999.0,-,N/A,,Scattered Clouds,0,2013-01-30 08:17:00
1:37 AM,-7.6,-13.0,77,29.76,-9999.0,North,-9999.0,-,N/A,,Mostly Cloudy,0,2013-01-30 08:37:00
1:57 AM,-5.8,-11.2,77,29.77,-9999.0,North,-9999.0,-,N/A,,Overcast,0,2013-01-30 08:57:00
2:17 AM,-5.8,-13.0,71,29.77,-9999.0,North,-9999.0,-,N/A,,Overcast,0,2013-01-30 09:17:00
2:37 AM,-7.6,-13.0,77,29.76,-9999.0,North,-9999.0,-,N/A,,Overcast,0,2013-01-30 09:37:00
2:57 AM,-5.8,-11.2,77,29.76,-9999.0,North,-9999.0,-,N/A,,Overcast,0,2013-01-30 09:57:00
3:17 AM,-7.6,-13.0,77,29.75,-9999.0,North,-9999.0,-,N/A,,Overcast,0,2013-01-30 10:17:00
3:37 AM,-5.8,-11.2,77,29.75,-9999.0,North,-9999.0,-,N/A,,Overcast,0,2013-01-30 10:37:00
3:57 AM,-5.8,-11.2,77,29.73,-9999.0,North,-9999.0,-,N/A,,Overcast,0,2013-01-30 10:57:00
4:17 AM,-5.8,-13.0,71,29.73,-9999.0,North,-9999.0,-,N/A,,Overcast,0,2013-01-30 11:17:00
4:37 AM,-5.8,-11.2,77,29.75,-9999.0,North,-9999.0,-,N/A,,Overcast,0,2013-01-30 11:37:00
4:57 AM,-5.8,-11.2,77,29.75,-9999.0,North,-9999.0,-,N/A,,Overcast,0,2013-01-30 11:57:00
5:17 AM,-5.8,-13.0,71,29.75,-9999.0,North,-9999.0,-,N/A,,Unknown,0,2013-01-30 12:17:00
5:37 AM,-7.6,-13.0,77,29.77,-9999.0,North,-9999.0,-,N/A,,Unknown,0,2013-01-30 12:37:00
5:57 AM,-7.6,-13.0,77,29.76,-9999.0,North,-9999.0,-,N/A,,Scattered Clouds,0,2013-01-30 12:57:00
6:17 AM,-5.8,-13.0,71,29.77,-9999.0,North,-9999.0,-,N/A,,Overcast,0,2013-01-30 13:17:00
6:37 AM,-5.8,-13.0,71,29.79,-9999.0,North,-9999.0,-,N/A,,Overcast,0,2013-01-30 13:37:00
6:57 AM,-5.8,-11.2,77,29.82,-9999.0,North,-9999.0,-,N/A,,Overcast,0,2013-01-30 13:57:00
7:17 AM,-5.8,-9.4,84,29.86,-9999.0,North,-9999.0,-,N/A,,Unknown,0,2013-01-30 14:17:00
7:37 AM,-5.8,-9.4,84,29.87,-9999.0,North,-9999.0,-,N/A,,Overcast,0,2013-01-30 14:37:00
7:57 AM,-5.8,-9.4,84,29.88,-9999.0,North,-9999.0,-,N/A,,Overcast,0,2013-01-30 14:57:00
8:17 AM,-4.0,-9.4,78,29.90,-9999.0,North,-9999.0,-,N/A,,Overcast,0,2013-01-30 15:17:00
8:37 AM,-4.0,-7.6,85,29.91,-9999.0,North,-9999.0,-,N/A,,Overcast,0,2013-01-30 15:37:00
8:57 AM,-4.0,-7.6,85,29.92,-9999.0,North,-9999.0,-,N/A,,Overcast,0,2013-01-30 15:57:00
9:17 AM,-4.0,-7.6,85,29.92,-9999.0,North,-9999.0,-,N/A,,Overcast,0,2013-01-30 16:17:00
9:37 AM,-2.2,-7.6,78,29.93,-9999.0,North,-9999.0,-,N/A,,Overcast,0,2013-01-30 16:37:00
9:57 AM,-2.2,-7.6,78,29.93,-9999.0,North,-9999.0,-,N/A,,Overcast,0,2013-01-30 16:57:00
10:17 AM,-2.2,-7.6,78,29.94,-9999.0,North,-9999.0,-,N/A,,Overcast,0,2013-01-30 17:17:00
10:37 AM,-2.2,-5.8,85,29.94,-9999.0,North,-9999.0,-,N/A,,Overcast,0,2013-01-30 17:37:00
10:57 AM,-0.4,-5.8,78,29.95,-9999.0,North,-9999.0,-,N/A,,Overcast,0,2013-01-30 17:57:00
11:17 AM,-0.4,-5.8,78,29.95,-9999.0,North,-9999.0,-,N/A,,Overcast,0,2013-01-30 18:17:00
11:37 AM,-0.4,-4.0,85,29.96,-9999.0,North,-9999.0,-,N/A,,Overcast,0,2013-01-30 18:37:00
11:57 AM,1.4,-4.0,78,29.95,-9999.0,North,-9999.0,-,N/A,,Overcast,0,2013-01-30 18:57:00
12:17 PM,1.4,-4.0,78,29.95,-9999.0,North,-9999.0,-,N/A,,Overcast,0,2013-01-30 19:17:00
12:37 PM,1.4,-4.0,78,29.96,-9999.0,North,-9999.0,-,N/A,,Overcast,0,2013-01-30 19:37:00
12:57 PM,3.2,-2.2,78,29.96,-9999.0,North,-9999.0,-,N/A,,Overcast,0,2013-01-30 19:57:00
1:17 PM,3.2,-2.2,78,29.96,-9999.0,North,-9999.0,-,N/A,,Overcast,0,2013-01-30 20:17:00
1:37 PM,3.2,-0.4,85,29.96,-9999.0,North,-9999.0,-,N/A,,Overcast,0,2013-01-30 20:37:00
1:57 PM,3.2,-0.4,85,29.97,-9999.0,North,-9999.0,-,N/A,,Overcast,0,2013-01-30 20:57:00
2:17 PM,3.2,-0.4,85,29.97,-9999.0,North,-9999.0,-,N/A,,Overcast,0,2013-01-30 21:17:00
2:37 PM,3.2,-0.4,85,29.97,-9999.0,North,-9999.0,-,N/A,,Overcast,0,2013-01-30 21:37:00
2:57 PM,3.2,-0.4,85,29.98,-9999.0,North,-9999.0,-,N/A,,Overcast,0,2013-01-30 21:57:00
3:17 PM,3.2,-0.4,85,29.98,-9999.0,North,-9999.0,-,N/A,,Unknown,0,2013-01-30 22:17:00
3:37 PM,3.2,-0.4,85,29.98,-9999.0,North,-9999.0,-,N/A,,Overcast,0,2013-01-30 22:37:00
3:57 PM,5.0,1.4,85,29.98,-9999.0,North,-9999.0,-,N/A,,Overcast,0,2013-01-30 22:57:00
4:17 PM,5.0,1.4,85,29.99,-9999.0,North,-9999.0,-,N/A,,Overcast,0,2013-01-30 23:17:00
4:37 PM,5.0,1.4,85,30.01,-9999.0,North,-9999.0,-,N/A,,Overcast,0,2013-01-30 23:37:00
4:57 PM,5.0,1.4,85,30.00,-9999.0,North,-9999.0,-,N/A,,Overcast,0,2013-01-30 23:57:00
5:17 PM,5.0,1.4,85,29.99,-9999.0,North,-9999.0,-,N/A,,Overcast,0,2013-01-31 00:17:00
5:37 PM,5.0,1.4,85,29.98,-9999.0,North,-9999.0,-,N/A,,Overcast,0,2013-01-31 00:37:00
5:57 PM,5.0,1.4,85,29.98,-9999.0,North,-9999.0,-,N/A,,Overcast,0,2013-01-31 00:57:00
6:17 PM,5.0,1.4,85,29.99,-9999.0,North,-9999.0,-,N/A,,Overcast,0,2013-01-31 01:17:00
6:37 PM,5.0,1.4,85,29.99,-9999.0,North,-9999.0,-,N/A,,Overcast,0,2013-01-31 01:37:00
6:57 PM,5.0,1.4,85,30.00,-9999.0,North,-9999.0,-,N/A,,Overcast,0,2013-01-31 01:57:00
7:17 PM,5.0,3.2,92,29.99,-9999.0,North,-9999.0,-,N/A,,Overcast,0,2013-01-31 02:17:00
7:37 PM,5.0,3.2,92,29.99,-9999.0,North,-9999.0,-,N/A,,Overcast,0,2013-01-31 02:37:00
7:57 PM,5.0,3.2,92,30.01,-9999.0,North,-9999.0,-,N/A,,Overcast,0,2013-01-31 02:57:00
8:17 PM,5.0,3.2,92,30.01,-9999.0,North,-9999.0,-,N/A,,Overcast,0,2013-01-31 03:17:00
8:37 PM,6.8,3.2,85,30.02,-9999.0,North,-9999.0,-,N/A,,Overcast,0,2013-01-31 03:37:00
8:57 PM,6.8,3.2,85,30.03,-9999.0,North,-9999.0,-,N/A,,Overcast,0,2013-01-31 03:57:00
9:17 PM,6.8,3.2,85,30.02,-9999.0,North,-9999.0,-,N/A,,Overcast,0,2013-01-31 04:17:00
9:37 PM,6.8,3.2,85,30.04,-9999.0,North,-9999.0,-,N/A,,Overcast,0,2013-01-31 04:37:00
9:57 PM,8.6,3.2,79,30.04,-9999.0,North,-9999.0,-,N/A,,Overcast,0,2013-01-31 04:57:00
10:17 PM,8.6,5.0,85,30.05,-9999.0,North,-9999.0,-,N/A,,Overcast,0,2013-01-31 05:17:00
10:37 PM,8.6,5.0,85,30.06,-9999.0,North,-9999.0,-,N/A,,Overcast,0,2013-01-31 05:37:00
10:57 PM,8.6,5.0,85,30.06,-9999.0,North,-9999.0,-,N/A,,Overcast,0,2013-01-31 05:57:00
11:17 PM,8.6,5.0,85,30.06,-9999.0,North,-9999.0,-,N/A,,Overcast,0,2013-01-31 06:17:00
11:37 PM,8.6,5.0,85,30.07,-9999.0,North,-9999.0,-,N/A,,Overcast,0,2013-01-31 06:37:00
11:57 PM,8.6,5.0,85,30.07,-9999.0,North,-9999.0,-,N/A,,Overcast,0,2013-01-31 06:57:00